Simultaneous Nadir Overpasses (SNOs) Predictions

Prediction of SNOs between GOES-15 and NPP Satellite Orbit:

Table of predicted SNOs for the next 14.0 days since TLE Epoch: 1/7/2017
Index Date Time (GOES-15) GOES-15 Lat,Lon NPP Lat,Lon Distance(km) Time Diff (sec)
1 01/07/2017 22:21:52 0.07,-134.59 0.05,-134.54 6.01 80
2 01/10/2017 10:24:56 -0.07,-134.75 0.03,-135.29 61.14 80
3 01/11/2017 10:08:50 -0.06,-134.80 -0.96,-130.76 460.25 80
4 01/12/2017 22:30:46 0.07,-134.81 -0.23,-136.06 142.66 80
5 01/13/2017 22:12:01 0.06,-134.85 0.81,-131.53 378.34 80
6 01/15/2017 10:31:08 -0.07,-134.96 0.37,-136.80 210.42 80
7 01/16/2017 10:15:04 -0.06,-135.00 -0.68,-132.28 310.57 80
8 01/17/2017 22:36:59 0.07,-135.01 -0.51,-137.58 292.47 80
9 01/18/2017 22:15:35 0.07,-135.05 0.54,-133.05 228.17 80
10 01/20/2017 10:37:22 -0.07,-135.15 0.64,-138.32 361.43 80




NCC Satellite Simultaneous Nadir Overpasses (SNOs) Prediction Service
